DC4THF-13 Weather Reports


time (UTC)temp
C
wind
direction
speed
KPH
gust
KPH
rain 1hr
cm
rain 24hr
cm
rain mn
cm
humidity
%
barometer
mb
20260505041216 13 315 1.6 3.2 0.00 0.03 0.00 80 1004.7
20260505040313 13 322 0.0 3.2 0.00 0.03 0.00 80 1004.7
20260505035310 13 0.0 0.0 0.00 0.03 0.00 78 1004.7
20260505034307 13 0.0 0.0 0.00 0.03 0.00 77 1004.8
20260505033303 13 0.0 0.0 0.00 0.03 0.00 76 1004.7
20260505032300 13 0.0 0.0 0.00 0.03 0.00 76 1004.9
20260505031257 13 0.0 1.6 0.00 0.03 0.00 76 1004.9
20260505030254 13 293 0.0 3.2 0.00 0.03 0.00 76 1005.0
20260505025251 13 325 1.6 3.2 0.00 0.03 0.00 76 1005.0
20260505024247 13 328 1.6 4.8 0.00 0.03 0.00 76 1005.1
20260505023244 13 315 0.0 3.2 0.00 0.03 0.00 76 1005.2
20260505022241 13 311 3.2 6.4 0.00 0.03 0.00 76 1005.3
20260505021237 13 315 0.0 3.2 0.00 0.03 0.00 75 1005.4
20260505020234 13 275 1.6 3.2 0.00 0.03 0.00 75 1005.4
20260505015231 13 0.0 1.6 0.00 0.03 0.00 75 1005.6
20260505014228 13 0.0 1.6 0.00 0.03 0.00 75 1005.7
20260505013224 13 202 0.0 3.2 0.00 0.03 0.00 75 1005.6
20260505012221 13 0.0 1.6 0.00 0.03 0.00 75 1005.4
20260505011218 13 0.0 0.0 0.00 0.03 0.00 75 1005.2
20260505010215 13 90 0.0 3.2 0.00 0.03 0.00 75 1005.4
20260505005312 13 0.0 1.6 0.00 0.03 0.00 75 1005.4
20260505004309 13 0.0 1.6 0.00 0.03 0.00 75 1005.5
20260505003306 13 0.0 1.6 0.00 0.03 0.00 76 1005.7
20260505002304 13 0 1.6 6.4 0.00 0.03 0.00 76 1005.7
20260505001259 13 0.0 1.6 0.00 0.03 0.00 77 1005.9
20260505000256 13 0.0 1.6 0.00 0.03 0.00 77 1005.9
20260504235253 13 0.0 0.0 0.00 0.03 0.00 77 1006.0
20260504234250 13 0.0 0.0 0.00 0.03 0.00 77 1006.0
20260504233247 13 0.0 0.0 0.00 0.03 0.00 77 1006.0
20260504232243 13 0.0 0.0 0.00 0.03 0.00 77 1006.2
20260504231240 13 0.0 0.0 0.00 0.03 0.00 77 1006.1
20260504230237 13 0.0 0.0 0.00 0.03 0.00 78 1006.2
20260504225234 13 0.0 0.0 0.00 0.03 0.00 78 1006.2
20260504224231 13 0.0 0.0 0.00 0.03 0.00 78 1006.2
20260504223227 13 0.0 0.0 0.00 0.03 0.00 77 1006.3
20260504222224 12 0.0 0.0 0.00 0.03 0.00 77 1006.3
20260504221221 13 0.0 0.0 0.00 0.03 0.00 75 1006.4
20260504220218 13 0.0 0.0 0.00 0.03 0.00 74 1006.2
20260504215314 13 0.0 0.0 0.00 0.03 0.03 74 1006.3
20260504214311 13 0.0 0.0 0.00 0.03 0.03 73 1006.2
20260504213307 14 0.0 0.0 0.00 0.03 0.03 72 1006.3
20260504212304 14 0.0 0.0 0.00 0.03 0.03 72 1006.3
20260504211300 15 0.0 0.0 0.00 0.03 0.03 71 1006.3
20260504210256 15 0.0 0.0 0.00 0.03 0.03 71 1006.2
20260504205252 15 0.0 0.0 0.00 0.03 0.03 70 1006.4
20260504204250 16 0.0 0.0 0.00 0.03 0.03 69 1006.3
20260504203246 16 0.0 0.0 0.00 0.03 0.03 66 1006.4
20260504202242 16 0.0 0.0 0.00 0.03 0.03 64 1006.2
20260504201239 16 0.0 0.0 0.00 0.03 0.03 65 1006.1
20260504200235 16 0.0 0.0 0.00 0.03 0.03 65 1006.1
20260504195232 17 0.0 0.0 0.00 0.03 0.03 64 1006.0
20260504194229 17 0.0 0.0 0.00 0.03 0.03 62 1005.9
20260504193226 17 270 1.6 3.2 0.00 0.03 0.03 61 1005.9
20260504192223 17 302 1.6 3.2 0.00 0.03 0.03 60 1005.8
20260504191220 17 0.0 0.0 0.00 0.03 0.03 58 1005.7
20260504190216 18 315 0.0 4.8 0.00 0.03 0.03 58 1005.7
20260504185313 18 0.0 1.6 0.00 0.03 0.03 56 1005.6
20260504184310 18 270 0.0 3.2 0.00 0.03 0.03 55 1005.5
20260504183307 19 315 1.6 3.2 0.00 0.03 0.03 53 1005.4
20260504182304 20 294 3.2 6.4 0.00 0.03 0.03 52 1005.2
20260504181301 20 293 3.2 4.8 0.00 0.03 0.03 51 1005.2
20260504180258 20 290 3.2 6.4 0.00 0.03 0.03 51 1005.1
20260504175254 21 307 1.6 4.8 0.00 0.03 0.03 50 1005.0
20260504174251 21 283 3.2 8.0 0.00 0.03 0.03 50 1004.9
20260504173248 21 275 3.2 6.4 0.00 0.03 0.03 49 1004.8
20260504172244 21 282 1.6 4.8 0.00 0.03 0.03 48 1004.7
20260504171242 22 261 3.2 4.8 0.00 0.03 0.03 45 1004.6
20260504170238 22 29 1.6 4.8 0.00 0.03 0.03 41 1004.5
20260504160219 23 180 0.0 3.2 0.00 0.03 0.03 41 1004.7
20260504150300 23 273 1.6 4.8 0.00 0.03 0.03 42 1004.9
20260504141244 24 213 4.8 12.9 0.00 0.03 0.03 40 1005.2
20260504140241 23 166 4.8 8.0 0.00 0.03 0.03 41 1005.2
20260504130222 23 259 8.0 12.9 0.00 0.03 0.03 41 1005.3
20260504120259 23 177 4.8 9.7 0.00 0.03 0.03 42 1005.5
20260504110237 22 293 1.6 6.4 0.00 0.03 0.03 43 1005.9
20260504100218 23 267 6.4 9.7 0.00 0.03 0.03 43 1006.6
20260504081243 21 183 4.8 14.5 0.00 0.03 0.03 49 1007.0
20260504080240 22 205 3.2 8.0 0.00 0.03 0.03 50 1007.0
20260504070220 20 164 3.2 6.4 0.00 0.03 0.03 56 1007.1
20260504050237 14 113 0.0 3.2 0.03 0.03 0.03 73 1006.6